DW8248 Weather Reports


Display with metric or nautical units.
time (UTC)temp
F
wind
direction
speed
MPH
gust
MPH
rain 1hr
in
rain 24hr
in
rain mn
in
humidity
%
barometer
mb
20180618114154 82 11 2.0 6.0 0.00 0.00 0.00 82 1018.3
20180618113127 81 5 2.0 4.0 0.00 0.00 0.00 84 1018.1
20180618112112 81 38 2.0 4.0 0.00 0.00 0.00 86 1018.1
20180618111106 80 40 1.0 3.0 0.00 0.00 0.00 87 1018.0
20180618110101 80 41 1.0 4.0 0.00 0.00 0.00 87 1018.0
20180618105034 80 51 1.0 4.0 0.00 0.00 0.00 88 1018.0
20180618104027 80 24 1.0 3.0 0.00 0.00 0.00 88 1018.0
20180618103017 80 26 1.0 3.0 0.00 0.00 0.00 88 1017.9
20180618101942 79 21 1.0 4.0 0.00 0.00 0.00 88 1017.8
20180618100924 79 38 1.0 4.0 0.00 0.00 0.00 89 1017.7
20180618095939 79 36 1.0 4.0 0.00 0.00 0.00 89 1017.7
20180618094923 79 36 1.0 3.0 0.00 0.00 0.00 89 1017.6
20180618093917 79 65 0.0 1.0 0.00 0.00 0.00 89 1017.5
20180618092923 79 83 0.0 0.0 0.00 0.00 0.00 89 1017.5
20180618091931 79 88 0.0 0.0 0.00 0.00 0.00 89 1017.4
20180618090856 79 105 0.0 0.0 0.00 0.00 0.00 89 1017.4
20180618085826 79 105 0.0 0.0 0.00 0.00 0.00 88 1017.1
20180618084830 79 105 0.0 0.0 0.00 0.00 0.00 88 1017.1
20180618083845 79 105 0.0 0.0 0.00 0.00 0.00 88 1017.0
20180618082837 79 105 0.0 0.0 0.00 0.00 0.00 88 1017.0
20180618081819 79 105 0.0 0.0 0.00 0.00 0.00 88 1017.0
20180618080800 79 105 0.0 0.0 0.00 0.00 0.00 87 1016.8
20180618075743 79 105 0.0 0.0 0.00 0.00 0.00 87 1016.9
20180618074752 79 105 0.0 0.0 0.00 0.00 0.00 87 1016.8
20180618073805 79 105 0.0 0.0 0.00 0.00 0.00 87 1016.8
20180618072753 80 105 0.0 0.0 0.00 0.00 0.00 87 1016.8
20180618071737 80 105 0.0 0.0 0.00 0.00 0.00 87 1016.8
20180618070725 80 105 0.0 0.0 0.00 0.00 0.00 87 1017.0
20180618065728 80 105 0.0 0.0 0.00 0.00 0.00 87 1017.0
20180618064634 80 105 0.0 0.0 0.00 0.00 0.00 86 1017.2
20180618063647 80 105 0.0 0.0 0.00 0.00 0.00 86 1017.4
20180618062610 80 105 0.0 0.0 0.00 0.00 0.00 86 1017.6
20180618061627 80 105 0.0 0.0 0.00 0.00 0.00 86 1017.6
20180618060621 80 105 0.0 0.0 0.00 0.00 0.00 86 1017.6
20180618055639 80 105 0.0 0.0 0.00 0.00 0.00 86 1017.7
20180618054640 81 105 0.0 0.0 0.00 0.00 0.00 86 1017.8
20180618053611 80 95 0.0 3.0 0.00 0.00 0.00 86 1017.8
20180618052607 80 80 1.0 3.0 0.00 0.00 0.00 86 1017.9
20180618051604 80 81 1.0 4.0 0.00 0.00 0.00 85 1017.9
20180618050611 80 80 0.0 4.0 0.00 0.00 0.00 85 1017.9
20180618045610 81 92 0.0 3.0 0.00 0.00 0.00 85 1018.0
20180618044544 81 107 1.0 4.0 0.00 0.00 0.00 85 1018.1
20180618043519 81 103 1.0 4.0 0.00 0.00 0.00 85 1018.2
20180618042541 81 92 0.0 3.0 0.00 0.00 0.00 84 1018.4
20180618041533 81 103 1.0 2.0 0.00 0.00 0.00 84 1018.3
20180618040519 81 107 0.0 2.0 0.00 0.00 0.00 84 1018.4
20180618035528 81 96 0.0 3.0 0.00 0.00 0.00 84 1018.4
20180618034503 81 87 1.0 3.0 0.00 0.00 0.00 84 1018.5
20180618033510 81 90 0.0 0.0 0.00 0.00 0.00 84 1018.5
20180618032438 81 91 1.0 3.0 0.00 0.00 0.00 83 1018.4
20180618031428 81 110 0.0 2.0 0.00 0.00 0.00 84 1018.4
20180618030406 81 93 0.0 2.0 0.00 0.00 0.00 84 1018.4
20180618025352 81 105 0.0 0.0 0.00 0.00 0.00 85 1018.3
20180618024322 81 103 0.0 0.0 0.00 0.00 0.00 85 1018.4
20180618023339 81 103 0.0 1.0 0.00 0.00 0.00 84 1018.4
20180618022346 81 108 0.0 2.0 0.00 0.00 0.00 84 1018.4
20180618021401 81 107 1.0 3.0 0.00 0.00 0.00 84 1018.4
20180618020342 81 107 1.0 4.0 0.00 0.01 0.00 84 1018.5
20180618015319 82 110 2.0 5.0 0.00 0.03 0.00 84 1018.2
20180618014259 82 119 2.0 5.0 0.00 0.04 0.00 83 1018.1
20180618013246 82 98 2.0 6.0 0.00 0.05 0.00 83 1017.9
20180618012218 81 86 2.0 7.0 0.00 0.06 0.00 83 1017.8
20180618011233 81 99 3.0 7.0 0.00 0.07 0.00 83 1017.7
20180618010218 82 124 1.0 7.0 0.00 0.08 0.00 84 1017.6
20180618005230 81 88 2.0 8.0 0.00 0.09 0.00 83 1017.5
20180618004247 81 53 2.0 8.0 0.00 0.09 0.00 83 1017.4
20180618003221 81 71 2.0 7.0 0.00 0.09 0.00 83 1017.4
20180618002230 81 94 3.0 7.0 0.00 0.09 0.00 83 1017.4
20180618001249 81 90 2.0 8.0 0.00 0.10 0.00 84 1017.4
20180618000222 81 69 4.0 9.0 0.00 0.10 0.00 85 1017.4
20180617235155 82 112 4.0 9.0 0.00 0.10 0.00 85 1017.3
20180617234119 82 104 3.0 9.0 0.00 0.10 0.00 85 1017.2
20180617233130 82 87 3.0 9.0 0.00 0.10 0.00 84 1017.2
20180617232143 82 55 3.0 9.0 0.00 0.10 0.00 85 1017.1
20180617231126 82 50 3.0 9.0 0.00 0.10 0.00 84 1017.1
20180617230117 82 57 4.0 9.0 0.00 0.10 0.00 84 1017.2
20180617225107 82 62 4.0 9.0 0.00 0.10 0.00 83 1017.4
20180617224117 82 81 4.0 10.0 0.00 0.10 0.00 83 1017.5
20180617223136 83 108 4.0 10.0 0.00 0.10 0.00 82 1017.4
20180617222147 83 71 5.0 11.0 0.00 0.10 0.00 81 1017.5
20180617221146 83 99 6.0 12.0 0.00 0.10 0.00 80 1017.5
20180617220137 84 53 6.0 12.0 0.00 0.10 0.00 80 1017.5
20180617215102 84 65 6.0 11.0 0.00 0.10 0.00 78 1017.4
20180617214056 84 47 5.0 13.0 0.00 0.10 0.00 79 1017.6
20180617213109 84 71 6.0 13.0 0.00 0.10 0.00 79 1017.8
20180617212052 84 80 5.0 12.0 0.00 0.10 0.00 79 1017.9
20180617211030 83 32 6.0 12.0 0.00 0.10 0.00 80 1018.0
20180617210050 83 17 6.0 12.0 0.00 0.10 0.00 80 1018.0
20180617205029 84 51 6.0 13.0 0.00 0.10 0.00 79 1017.9
20180617204021 84 41 7.0 13.0 0.00 0.10 0.00 78 1017.8
20180617202952 84 49 6.0 12.0 0.00 0.10 0.00 78 1017.9
20180617202008 84 31 6.0 12.0 0.00 0.10 0.00 79 1017.8
20180617201027 84 49 7.0 12.0 0.00 0.10 0.00 78 1017.7
20180617200003 84 26 6.0 12.0 0.00 0.10 0.00 78 1017.8
20180617194927 83 32 7.0 12.0 0.00 0.10 0.00 77 1017.8
20180617193858 83 67 6.0 11.0 0.00 0.10 0.00 78 1017.8
20180617192841 83 59 7.0 11.0 0.00 0.10 0.00 78 1017.9
20180617191841 83 49 6.0 11.0 0.00 0.10 0.00 79 1017.9
20180617190831 84 44 6.0 12.0 0.00 0.10 0.00 78 1018.0
20180617185812 84 46 6.0 12.0 0.00 0.10 0.00 77 1018.1
20180617184829 84 75 6.0 12.0 0.00 0.10 0.00 79 1018.2
20180617183841 84 48 6.0 12.0 0.00 0.10 0.00 79 1018.2
20180617182817 84 90 6.0 11.0 0.00 0.10 0.00 78 1018.3
20180617181740 84 109 5.0 11.0 0.00 0.10 0.00 78 1018.4
20180617180749 84 50 6.0 11.0 0.00 0.10 0.00 79 1018.4
20180617175724 83 67 7.0 11.0 0.00 0.10 0.00 77 1018.4
20180617174651 84 49 6.0 10.0 0.00 0.10 0.00 77 1018.5
20180617173617 83 28 6.0 10.0 0.00 0.10 0.00 76 1018.5
20180617172612 83 30 5.0 11.0 0.00 0.10 0.00 75 1018.6
20180617171602 83 49 4.0 11.0 0.00 0.10 0.00 74 1018.8
20180617170528 83 73 5.0 10.0 0.00 0.10 0.00 74 1018.9
20180617165533 84 24 6.0 10.0 0.00 0.10 0.00 72 1019.0
20180617164540 83 59 5.0 9.0 0.00 0.10 0.00 72 1019.1
20180617163504 83 38 6.0 11.0 0.00 0.10 0.00 72 1019.1
20180617162505 83 32 6.0 11.0 0.00 0.10 0.00 74 1019.2
20180617161523 84 5 5.0 10.0 0.00 0.10 0.00 73 1019.2
20180617160535 83 17 6.0 10.0 0.00 0.10 0.00 72 1019.4
20180617155516 83 10 6.0 10.0 0.00 0.10 0.00 74 1019.5
20180617154452 83 20 5.0 10.0 0.00 0.10 0.00 73 1019.6
20180617153513 83 48 4.0 8.0 0.00 0.10 0.00 75 1019.4
20180617152503 83 57 4.0 10.0 0.00 0.10 0.00 75 1019.4
20180617151510 83 61 4.0 10.0 0.00 0.10 0.00 76 1019.4
20180617150525 83 24 5.0 9.0 0.00 0.10 0.00 76 1019.4
20180617145516 82 64 4.0 9.0 0.00 0.10 0.00 76 1019.4
20180617144502 82 44 4.0 9.0 0.00 0.10 0.00 77 1019.4
20180617143439 82 59 3.0 7.0 0.00 0.10 0.00 77 1019.2
20180617142451 82 47 3.0 6.0 0.00 0.10 0.00 77 1019.0
20180617141508 82 53 3.0 6.0 0.00 0.10 0.00 78 1019.0
20180617140530 82 23 3.0 7.0 0.00 0.10 0.00 78 1019.0
20180617135516 82 355 3.0 7.0 0.00 0.10 0.00 78 1019.0
20180617134445 82 17 3.0 7.0 0.00 0.10 0.00 77 1019.0
20180617133426 82 53 4.0 8.0 0.00 0.10 0.00 78 1018.9
20180617132419 83 13 3.0 8.0 0.00 0.10 0.00 80 1019.0
20180617131424 83 52 3.0 7.0 0.00 0.10 0.00 78 1018.9
20180617130407 83 9 3.0 6.0 0.00 0.10 0.00 76 1018.9
20180617125331 83 342 3.0 5.0 0.00 0.10 0.00 79 1018.7
20180617124327 82 350 3.0 5.0 0.00 0.10 0.00 79 1018.6
20180617123319 81 5 3.0 5.0 0.00 0.10 0.00 80 1018.6
20180617122320 81 350 4.0 7.0 0.00 0.10 0.00 81 1018.5
20180617121244 81 0 3.0 7.0 0.00 0.10 0.00 82 1018.4
20180617120211 81 13 3.0 7.0 0.00 0.10 0.00 79 1018.3
20180617115151 81 5 2.0 5.0 0.00 0.10 0.00 82 1018.2